TimeWET,TemperatureF,Dew PointF,Humidity,Sea Level PressureIn,VisibilityMPH,Wind Direction,Wind SpeedMPH,Gust SpeedMPH,PrecipitationIn,Events,Conditions,WindDirDegrees,DateUTC
12:00 AM,55.4,55.4,100,29.92,-9999.0,WSW,3.5,-,N/A,Rain,Rain,250,2012-10-19 00:00:00
12:30 AM,55.4,55.4,100,29.92,6.2,WSW,3.5,-,N/A,Rain,Rain,250,2012-10-19 00:30:00
1:00 AM,55.4,55.4,100,29.89,6.2,East,11.5,-,N/A,Rain,Rain,100,2012-10-19 01:00:00
1:30 AM,55.4,55.4,100,29.86,6.2,ESE,13.8,-,N/A,Rain,Rain,110,2012-10-19 01:30:00
2:00 AM,57.2,57.2,100,29.83,6.2,ESE,18.4,-,N/A,Rain,Rain,110,2012-10-19 02:00:00
2:30 AM,57.2,55.4,94,29.83,6.2,ESE,17.3,-,N/A,Rain,Rain,110,2012-10-19 02:30:00
3:00 AM,56,56,98,29.83,6,North,4.6,,,Rain,Rain,0,2012-10-19 03:00:00
3:00 AM,57.2,55.4,94,29.83,6.2,Variable,4.6,-,N/A,Rain,Rain,0,2012-10-19 03:00:00
3:30 AM,57.2,55.4,94,29.83,6.2,NNE,6.9,-,N/A,Rain,Rain,20,2012-10-19 03:30:00
4:00 AM,57.2,55.4,94,29.83,6.2,NNE,8.1,-,N/A,Rain,Rain,20,2012-10-19 04:00:00
4:30 AM,57.2,55.4,94,29.83,6.2,NE,9.2,-,N/A,Rain,Rain,40,2012-10-19 04:30:00
5:00 AM,57.2,55.4,94,29.83,6.2,NNE,8.1,-,N/A,,Scattered Clouds,30,2012-10-19 05:00:00
5:30 AM,57.2,55.4,94,29.86,6.2,NNE,5.8,-,N/A,,Scattered Clouds,20,2012-10-19 05:30:00
6:00 AM,57.2,53.6,88,29.86,6.2,Variable,1.2,-,N/A,,Mostly Cloudy,0,2012-10-19 06:00:00
7:30 AM,57.2,55.4,94,29.86,6.2,Variable,2.3,-,N/A,,Scattered Clouds,0,2012-10-19 07:30:00
8:00 AM,57.2,55.4,94,29.86,6.2,ESE,3.5,-,N/A,,Scattered Clouds,110,2012-10-19 08:00:00
8:30 AM,59.0,55.4,88,29.89,6.2,Calm,Calm,-,N/A,,Scattered Clouds,0,2012-10-19 08:30:00
9:00 AM,59,54,79,29.87,6,South,1.2,,,,Mostly Cloudy,180,2012-10-19 09:00:00
9:00 AM,59.0,55.4,88,29.89,6.2,Variable,1.2,-,N/A,,Scattered Clouds,0,2012-10-19 09:00:00
9:30 AM,60.8,55.4,82,29.89,6.2,Variable,1.2,-,N/A,,Scattered Clouds,0,2012-10-19 09:30:00
10:00 AM,60.8,55.4,82,29.89,6.2,NW,3.5,-,N/A,,Scattered Clouds,310,2012-10-19 10:00:00
10:30 AM,60.8,53.6,77,29.89,6.2,NNW,3.5,-,N/A,,Mostly Cloudy,330,2012-10-19 10:30:00
11:00 AM,62.6,53.6,72,29.89,6.2,ENE,3.5,-,N/A,,Mostly Cloudy,70,2012-10-19 11:00:00
11:30 AM,64.4,53.6,68,29.89,6.2,SE,4.6,-,N/A,,Mostly Cloudy,130,2012-10-19 11:30:00
11:46 AM,64,53,58,29.85,6,West,3.5,,,,Mostly Cloudy,270,2012-10-19 11:46:00
12:00 PM,64.4,53.6,68,29.89,6.2,Variable,2.3,-,N/A,,Mostly Cloudy,0,2012-10-19 12:00:00
12:30 PM,64.4,53.6,68,29.86,6.2,NW,5.8,-,N/A,,Mostly Cloudy,320,2012-10-19 12:30:00
1:00 PM,66.2,51.8,60,29.86,6.2,NW,6.9,-,N/A,,Mostly Cloudy,320,2012-10-19 13:00:00
1:30 PM,66.2,51.8,60,29.86,6.2,NNW,6.9,-,N/A,,Mostly Cloudy,330,2012-10-19 13:30:00
2:00 PM,66.2,50.0,56,29.86,6.2,West,6.9,-,N/A,,Mostly Cloudy,280,2012-10-19 14:00:00
2:30 PM,66.2,50.0,56,29.86,6.2,West,6.9,-,N/A,,Mostly Cloudy,280,2012-10-19 14:30:00
3:00 PM,67,50,43,29.81,6,West,6.9,,,,Mostly Cloudy,280,2012-10-19 15:00:00
3:00 PM,66.2,50.0,56,29.86,6.2,West,6.9,-,N/A,,Mostly Cloudy,280,2012-10-19 15:00:00
3:30 PM,68.0,48.2,49,29.86,6.2,NNW,8.1,-,N/A,,Mostly Cloudy,340,2012-10-19 15:30:00
4:00 PM,66.2,48.2,52,29.86,6.2,WNW,8.1,-,N/A,,Mostly Cloudy,290,2012-10-19 16:00:00
4:30 PM,66.2,48.2,52,29.86,6.2,NW,8.1,-,N/A,,Mostly Cloudy,310,2012-10-19 16:30:00
5:00 PM,66.2,48.2,52,29.86,6.2,West,6.9,-,N/A,,Partly Cloudy,270,2012-10-19 17:00:00
5:30 PM,66.2,48.2,52,29.86,6.2,WSW,5.8,-,N/A,,Partly Cloudy,240,2012-10-19 17:30:00
6:00 PM,64,52,57,29.84,6,WNW,11.5,,,,Mostly Cloudy,300,2012-10-19 18:00:00
6:00 PM,64.4,51.8,64,29.86,6.2,WNW,11.5,-,N/A,,Partly Cloudy,300,2012-10-19 18:00:00
6:30 PM,62.6,51.8,68,29.86,6.2,WNW,10.4,-,N/A,,Partly Cloudy,300,2012-10-19 18:30:00
7:00 PM,62.6,51.8,68,29.89,6.2,NW,9.2,-,N/A,,Partly Cloudy,310,2012-10-19 19:00:00
7:30 PM,62.6,51.8,68,29.89,6.2,WNW,8.1,-,N/A,,Partly Cloudy,300,2012-10-19 19:30:00
8:00 PM,60.8,53.6,77,29.92,6.2,West,5.8,-,N/A,,Partly Cloudy,280,2012-10-19 20:00:00
8:30 PM,59.0,51.8,77,29.92,6.2,SSW,13.8,-,N/A,,Partly Cloudy,200,2012-10-19 20:30:00
9:00 PM,56,54,90,29.92,5,South,12.7,,,Rain,Light Rain Showers,190,2012-10-19 21:00:00
9:00 PM,57.2,53.6,88,29.92,5.0,South,12.7,-,N/A,Rain,Rain Showers,190,2012-10-19 21:00:00
9:30 PM,57.2,53.6,88,29.92,5.0,South,10.4,-,N/A,Rain,Rain Showers,170,2012-10-19 21:30:00
10:00 PM,57.2,53.6,88,29.95,5.0,SW,6.9,-,N/A,,Partly Cloudy,220,2012-10-19 22:00:00
10:30 PM,57.2,53.6,88,29.95,6.2,SSW,8.1,-,N/A,,Partly Cloudy,210,2012-10-19 22:30:00
11:00 PM,57.2,53.6,88,29.95,6.2,SSW,4.6,-,N/A,,Partly Cloudy,200,2012-10-19 23:00:00
11:30 PM,57.2,53.6,88,29.95,6.2,SSW,4.6,-,N/A,,Mostly Cloudy,210,2012-10-19 23:30:00